Regional Weather Roundup
Issued by NWS Sterling, VA

Home | Current Version | Previous Version | Graphics & Text | Print | Product List | Glossary On
Versions: 1 2 3 4 5 6 7 8 9 10 11 12 13 14 15 16 17 18 19 20 21 22 23 24 25 26 27 28 29 30 31 32 33 34 35 36 37 38 39 40 41 42 43 44 45 46 47 48 49 50
000
ASUS41 KLWX 280910
RWRLWX

REGIONAL WEATHER ROUNDUP
NATIONAL WEATHER SERVICE BALTIMORE MD/WASHINGTON DC
400 AM EST SAT FEB 28 2015

Note: "FAIR" indicates few or no clouds below 12,000 feet
with no significant weather and/or obstructions to visibility.
 TC=TEMPERATURE CELSIUS

 * =Non NWS site. Station does not report precipitation (e.g. rain,
    snow, etc.), thunder, or fog.

DCZ001-MDZ009-015-VAZ040>042-051-053>054-281000-
WASHINGTON METRO

CITY           SKY/WX    TMP DP  RH WIND       PRES   REMARKS
WASHINGTON NAT PTCLDY    22   4  46 N7        30.75R
DULLES         CLEAR     17  -1  45 N5        30.72R
ANDREWS AFB    CLEAR     18   2  50 N8        30.72R WCI   7
FT BELVOIR     CLEAR     18   4  53 N2        30.74R
QUANTICO       CLEAR     21   2  43 N7        30.76R
COLLEGE PARK*  CLEAR     19   3  49 CALM      30.74R
LEESBURG*      CLEAR     18   5  57 CALM      30.73R
MANASSAS*      CLEAR     16   7  67 NW3       30.74R
GAITHERSBURG*  CLEAR     10  -2  56 CALM      30.74R

$$

MDZ006>007-011-014-281000-
BALTIMORE METRO

CITY           SKY/WX    TMP DP  RH WIND       PRES   REMARKS
BWI AIRPORT    PTCLDY    16  -2  45 NW5       30.73R
MD SCIENCE CTR   N/A     19  -2  39 MISG      30.73R
MARTIN STATE   CLEAR     19   1  45 NW7       30.75R
ANNAPOLIS      CLEAR     20   3  48 NW9       30.73R WCI   9
FORT MEADE*    CLEAR     18   0  45 CALM      30.75R

$$

MDZ012-015-019>023-281000-
MARYLAND EASTERN SHORE

CITY           SKY/WX    TMP DP  RH WIND       PRES   REMARKS
OCEAN CITY     PTCLDY    19   7  59 N8        30.69R WCI   9
SALISBURY      PTCLDY    21   6  52 N7        30.70R
BAY BRIDGE AP*   N/A     21   5  49 N8        30.74R WCI  12
CAMBRIDGE*     CLEAR     23   7  50 NW5       30.72R
EASTON*        CLEAR     21   6  51 N6        30.76R

$$

MDZ017>025-281000-
SOUTHERN MARYLAND

CITY           SKY/WX    TMP DP  RH WIND       PRES   REMARKS
PATUXENT RIVER PTCLDY    21   5  50 N8        30.72R WCI  11
ST INIGOES     PTCLDY    20   5  52 W3        30.72R
LEONARDTOWN*   PTCLDY    21   1  42 N3        30.73R

$$

MDZ003>005-281000-
NORTH CENTRAL MARYLAND

CITY           SKY/WX    TMP DP  RH WIND       PRES   REMARKS
FREDERICK*     PTCLDY    12   1  62 CALM      30.76R
HAGERSTOWN APT PTCLDY    15   0  51 NW7       30.69S
WESTMINSTER*   PTCLDY    12  -2  52 N3        30.68R

$$

MDZ501>502-281000-
WESTERN MARYLAND

CITY           SKY/WX    TMP DP  RH WIND       PRES   REMARKS
OAKLAND*       PTCLDY     5  -8  56 NW3       30.48R
CUMBERLAND*    PTCLDY    16   1  53 CALM      30.74R

$$

VAZ025>031-281000-
SHENANDOAH VALLEY

CITY           SKY/WX    TMP DP  RH WIND       PRES   REMARKS
WINCHESTER*    CLEAR     14   0  52 CALM      30.70R
FRONT ROYAL*   FAIR      14   0  52 CALM      30.70R
LURAY*         FAIR      18   7  62 N6        30.68R
NEW MARKET*    FAIR       6   2  86 CALM      30.67R
STAUNTON*      PTCLDY     8   1  72 CALM      30.66R
WAYNESBORO*    FAIR      10   2  72 CALM      30.61R

$$

WVZ021-048>050-054>055-281000-
EASTERN WEST VIRGINIA PANHANDLE

CITY           SKY/WX    TMP DP  RH WIND       PRES   REMARKS
MARTINSBURG    PTCLDY    16   0  49 N3        30.72R
PETERSBURG*    NOT AVBL

$$

VAZ036>039-050-281000-
CENTRAL FOOTHILLS

CITY           SKY/WX    TMP DP  RH WIND       PRES   REMARKS
CHARLOTTESVILL CLEAR     19   2  47 E6        30.69R
CULPEPER*      CLEAR     12   7  79 CALM      30.72R
ORANGE*        CLEAR     19   5  53 CALM      30.73R
GORDONSVILLE*  FAIR      15   3  59 CALM      30.71R
WARRENTON*     FAIR      13  11  94 CALM      30.72R

$$

VAZ055>057-281000-
NORTH AND CENTRAL PIEDMONT

CITY           SKY/WX    TMP DP  RH WIND       PRES   REMARKS
FREDERICKSBRG* CLEAR     22   5  48 CALM      30.74R
STAFFORD*      CLEAR     18   4  55 CALM      30.77R

$$

NCZ024-NYZ072-PAZ021-071-VAZ022-071-281000-
OTHER REGIONAL OBSERVATIONS

CITY           SKY/WX    TMP DP  RH WIND       PRES   REMARKS
NEW YORK CITY  CLEAR     16  -5  39 VRB5      30.70R
PHILADELPHIA   PTCLDY    18   0  45 N10       30.74R WCI   6
PITTSBURGH     PTCLDY     1  -6  72 NW3       30.67R
ROANOKE        MOCLDY    18   6  59 CALM      30.65R
RICHMOND       PTCLDY    22   5  48 N9        30.71R WCI  12
RALEIGH        PTCLDY    27  19  72 NE8       30.62S WCI  19

$$

ANZ530>537-281000-
MARINE OBSERVATIONS

STATION/POSITION TIME  TEMP    WIND        PRES
                       AIR SEA DIR/SP/G
                 (UTC) (F)     (DEG/KT/KT) (MB)
THOMAS PT LIGHT  0900   21 31  340/ 11/ 12 1041.6R
BALT KEY BRIDGE  0800   21     320/ 12/ 13 1040.0S
COVE POINT       0800   22      10/ 11/ 15 1039.8R
LEWISETTA        0800   24 32              1039.8R
SOLOMONS ISLAND  0800      33                N/A

$$



USA.gov is the U.S. government's official web portal to all federal, state and local government web resources and services.